[[{"header":{"parameterUnit":"m.s-1","parameterCategory":1,"la1":30.2992,"la2":30.254,"lo1":-89.0895,"lo2":-89.0443,"dy":0.0025,"dx":0.0025,"nx":19,"ny":19,"refTime":"2026-03-30T09:00:00:Z","depth":0,"parameterNumber":2,"parameterNumberName":"U-component_of_WINDS"},"data":[0,0,0,-5.6702,-5.6705,-5.6825,-5.6825,-5.6995,-5.6997,0,0,0,0,0,0,0,0,0,0,0,-5.6678,-5.668,-5.6702,-5.6705,-5.6825,-5.6825,-5.6995,-5.6997,0,0,0,0,0,0,0,0,0,0,0,-5.6678,-5.6679,-5.6682,-5.6706,-5.6825,-5.6825,-5.6995,-5.6898,0,0,0,0,0,0,0,0,0,0,-5.6779,-5.6768,-5.6679,-5.6682,-5.6707,-5.6825,-5.6825,-5.6893,-5.6904,-5.6949,0,-5.6993,0,-5.6998,-5.701,-5.701,0,0,0,-5.6696,-5.6759,-5.6781,-5.6682,-5.6708,-5.6825,-5.6768,-5.6899,-5.6911,-5.6964,-5.6995,-5.7001,-5.7001,-5.7011,-5.7012,-5.7303,-5.7304,0,0,-5.669,-5.6706,-5.6773,-5.679,-5.6774,-5.6765,-5.6772,-5.6906,-5.6941,-5.6996,-5.7005,-5.7004,-5.7012,-5.7014,-5.7301,-5.7303,0,0,0,-5.6677,-5.6702,-5.672,-5.6783,-5.6804,-5.6768,-5.6777,-5.6935,-5.694,-5.7006,-5.7006,-5.7013,-5.7016,-5.7299,-5.7302,-5.7404,0,0,0,-5.6672,-5.6694,-5.6717,-5.6729,-5.6802,-5.6871,-5.6804,-5.6931,-5.6945,-5.7005,-5.7013,-5.7017,-5.7297,-5.73,-5.7397,-5.7449,0,0,0,-5.6666,-5.6693,-5.6715,-5.6729,-5.6781,-5.6869,-5.6881,-5.6933,-5.6945,-5.701,-5.7018,-5.7296,-5.73,-5.7391,-5.7439,-5.7528,0,0,0,-5.6665,-5.6805,-5.6717,-5.6873,-5.6781,-5.6933,-5.688,-5.6992,-5.706,-5.7014,-5.7297,-5.7301,-5.7389,-5.7432,-5.7522,-5.7605,-5.7642,0,0,-5.685,-5.6828,-5.6918,-5.6843,-5.7015,-5.6913,-5.7099,-5.7146,-5.7137,-5.7248,-5.7254,-5.7399,-5.7438,-5.7527,-5.7849,-5.7878,0,0,0,-5.6983,-5.7048,-5.709,-5.7156,-5.7196,-5.7233,-5.725,-5.7267,-5.736,-5.7198,-5.7457,-5.748,-5.7531,-5.757,-5.7595,-5.7637,-5.7321,-5.732,-5.732,-5.7267,-5.7249,-5.7397,-5.7393,-5.7458,-5.7474,-5.7524,-5.7549,-5.7512,-5.7574,-5.7605,-5.7803,-5.7849,-5.7868,-5.7912,-5.765,-5.765,-5.7651,-5.7651,-5.7535,-5.7623,-5.7571,-5.7695,-5.7674,-5.7778,-5.7799,-5.7769,-5.7861,-5.7778,-5.7822,-5.7729,-5.7901,-5.7938,-5.7659,-5.7657,-5.7656,-5.7656,-5.7655,-5.7717,-5.7756,-5.7775,-5.7868,-5.7942,-5.7933,-5.8024,-5.8003,-5.7983,-5.8027,-5.8057,-5.8055,-5.8048,-5.8043,-5.8044,-5.8045,-5.8045,-5.8046,-5.8046,-5.7897,-5.7915,-5.7995,-5.8049,-5.8088,-5.8137,-5.8155,-5.8192,-5.8227,-5.8204,-5.8204,-5.8159,-5.7922,-5.7861,-5.8057,-5.8055,-5.8054,-5.8053,-5.8052,-5.817,-5.8105,-5.8228,-5.8267,-5.8328,-5.8401,-5.8374,-5.8452,-5.8479,-5.8525,-5.8471,-5.83,-5.8275,-5.8255,-5.8204,-5.8476,-5.8476,-5.8476,-5.8476,-5.8321,-5.8307,-5.8427,-5.8491,-5.8551,-5.8538,-5.8676,-5.8691,-5.8696,-5.8712,-5.867,-5.8602,-5.8583,-5.8569,-5.8542,-5.8494,-5.8834,-5.8834,-5.8835,-5.8487,-5.8478,-5.8599,-5.8604,-5.8651,-5.869,-5.8818,-5.8892,-5.8885,-5.8849,-5.8723,-5.8708,-5.8598,-5.8564,-5.8522,-5.8481,-5.8392,0,0]},{"header":{"parameterUnit":"m.s-1","parameterCategory":1,"la1":30.2992,"la2":30.254,"lo1":-89.0895,"lo2":-89.0443,"dy":0.0025,"dx":0.0025,"nx":19,"ny":19,"refTime":"2026-03-30T09:00:00:Z","depth":0,"parameterNumber":3,"parameterNumberName":"V-component_of_WINDS"},"data":[0,0,0,2.836,2.8361,2.8399,2.84,2.8453,2.8454,0,0,0,0,0,0,0,0,0,0,0,2.8353,2.8353,2.836,2.8361,2.8399,2.84,2.8453,2.8454,0,0,0,0,0,0,0,0,0,0,0,2.8353,2.8353,2.8354,2.8362,2.8399,2.84,2.8453,2.8422,0,0,0,0,0,0,0,0,0,0,2.8384,2.8381,2.8353,2.8354,2.8362,2.8399,2.84,2.8421,2.8424,2.8438,0,2.8453,0,2.8454,2.8458,2.8458,0,0,0,2.8358,2.8378,2.8385,2.8354,2.8362,2.8399,2.8381,2.8423,2.8427,2.8443,2.8453,2.8455,2.8455,2.8458,2.8458,2.8553,2.8553,0,0,2.8356,2.8361,2.8383,2.8388,2.8383,2.838,2.8383,2.8425,2.8436,2.8453,2.8456,2.8456,2.8459,2.8459,2.8552,2.8553,0,0,0,2.8352,2.836,2.8366,2.8386,2.8393,2.8381,2.8384,2.8434,2.8436,2.8457,2.8457,2.8459,2.846,2.8552,2.8553,2.8587,0,0,0,2.8351,2.8358,2.8365,2.8369,2.8392,2.8414,2.8393,2.8433,2.8437,2.8456,2.8459,2.846,2.8551,2.8552,2.8585,2.8602,0,0,0,2.8349,2.8357,2.8364,2.8369,2.8385,2.8413,2.8417,2.8434,2.8438,2.8458,2.846,2.8551,2.8552,2.8583,2.8599,2.863,0,0,0,2.8348,2.8393,2.8365,2.8415,2.8385,2.8435,2.8417,2.8453,2.8475,2.8459,2.8551,2.8552,2.8582,2.8597,2.8627,2.8657,2.8669,0,0,2.8408,2.8401,2.843,2.8406,2.8462,2.8428,2.8489,2.8503,2.85,2.8535,2.8538,2.8586,2.8599,2.8629,2.8737,2.8747,0,0,0,2.845,2.8472,2.8485,2.8507,2.852,2.8533,2.8538,2.8543,2.8573,2.8519,2.8604,2.8612,2.863,2.8643,2.8652,2.8667,2.8559,2.8559,2.8559,2.8542,2.8536,2.8585,2.8585,2.8606,2.8611,2.8628,2.8636,2.8623,2.8644,2.8654,2.872,2.8737,2.8743,2.8759,2.8669,2.8669,2.8669,2.8669,2.8629,2.8659,2.8642,2.8683,2.8678,2.8712,2.8719,2.8709,2.874,2.8712,2.8727,2.8697,2.8754,2.8768,2.8672,2.8671,2.8671,2.8671,2.867,2.8689,2.8702,2.8709,2.8741,2.8766,2.8764,2.8795,2.8788,2.8781,2.8796,2.8807,2.8806,2.8805,2.8802,2.8802,2.8802,2.8802,2.8803,2.8803,2.8748,2.8755,2.8782,2.8801,2.8815,2.8832,2.8839,2.8852,2.8864,2.8857,2.8857,2.8843,2.8761,2.8741,2.8806,2.8806,2.8805,2.8805,2.8805,2.8839,2.8818,2.8861,2.8875,2.8897,2.8923,2.8914,2.8941,2.8951,2.8967,2.8949,2.889,2.8882,2.8875,2.8858,2.895,2.895,2.895,2.895,2.889,2.8886,2.8929,2.8952,2.8973,2.897,2.9018,2.9024,2.9027,2.9032,2.9018,2.8995,2.8989,2.8984,2.8975,2.8959,2.9075,2.9075,2.9075,2.8947,2.8944,2.8987,2.899,2.9008,2.9022,2.9068,2.9095,2.9093,2.908,2.9037,2.9032,2.8995,2.8983,2.8969,2.8955,2.8926,0,0]}]]